Location: Unspecified
(0.0000°N, 0.0000°E)
Time: 18:32:08
(UTC+00:00)

SR - All Passes

Search period start: 23 October 2014 00:00
Search period end: 02 November 2014 00:00
Orbit: 576 x 889 km, 66.7° (Epoch: 23 October)

Date Brightness Start Highest point End Pass type
(mag) Time Alt. Az. Time Alt. Az. Time Alt. Az.
23 Oct - 00:43:18 10° NNW 00:47:57 73° WSW 00:52:18 10° SSE night (unlit)
23 Oct - 11:28:16 10° SSE 11:31:56 18° ESE 11:35:44 10° ENE daylight
23 Oct - 13:08:56 10° SW 13:13:49 33° WNW 13:18:57 10° N daylight
23 Oct - 23:55:20 10° N 23:59:42 38° ENE 00:03:46 10° SE night (unlit)
24 Oct - 12:20:04 10° SSW 12:25:30 78° WNW 12:31:19 10° NNE daylight
24 Oct - 23:08:52 10° NE 23:11:20 14° ENE 23:13:43 10° E night (unlit)
25 Oct - 00:49:32 10° NW 00:53:14 24° WSW 00:56:47 10° SSW night (unlit)
25 Oct - 11:32:06 10° S 11:37:16 44° ESE 11:42:44 10° NE daylight
25 Oct - 13:16:37 10° W 13:19:20 14° WNW 13:22:07 10° NW daylight
26 Oct - 00:00:26 10° NNW 00:05:03 71° WSW 00:09:22 10° SSE night (unlit)
26 Oct - 10:45:18 10° SSE 10:49:03 19° ESE 10:52:58 10° ENE daylight
26 Oct - 12:26:04 10° SW 12:30:57 32° WNW 12:36:04 10° N daylight
26 Oct - 23:12:27 10° N 23:16:47 39° ENE 23:20:51 10° SE night (unlit)
27 Oct - 11:37:10 10° SSW 11:42:37 76° WNW 11:48:27 10° NNE daylight
27 Oct - 22:25:56 10° NE 22:28:26 14° ENE 22:30:51 10° E night (unlit)
28 Oct - 00:06:41 10° NW 00:10:19 24° WSW 00:13:48 10° SSW night (unlit)
28 Oct - 10:49:10 10° S 10:54:23 46° ESE 10:59:54 10° NE daylight
28 Oct - 12:33:48 10° W 12:36:27 13° WNW 12:39:09 10° NW daylight
28 Oct - 23:17:32 10° NNW 23:22:08 69° WSW 23:26:25 10° SSE night (unlit)
29 Oct - 10:02:18 10° SSE 10:06:10 19° ESE 10:10:10 10° ENE daylight
29 Oct - 11:43:11 10° SW 11:48:03 32° WNW 11:53:10 10° N daylight
29 Oct - 22:29:32 10° N 22:33:52 40° ENE 22:37:56 10° SE night (unlit)
30 Oct - 10:54:14 10° SSW 10:59:44 75° WNW 11:05:34 10° NNE daylight
30 Oct - 21:42:58 10° NE 21:45:30 15° ENE 21:47:57 10° ESE night (unlit)
30 Oct - 23:23:49 10° WNW 23:27:23 23° WSW 23:30:48 10° SSW night (unlit)
31 Oct - 10:06:13 10° S 10:11:28 47° ESE 10:17:02 10° NE daylight
31 Oct - 11:50:58 10° W 11:53:33 13° WNW 11:56:11 10° NW daylight
31 Oct - 22:34:38 10° NNW 22:39:11 67° WSW 22:43:27 10° SSE night (unlit)
01 Nov - 09:19:18 10° SSE 09:23:15 20° ESE 09:27:20 10° ENE daylight
01 Nov - 11:00:16 10° SW 11:05:09 31° WNW 11:10:15 10° N daylight
01 Nov - 21:46:35 10° N 21:50:55 40° ENE 21:54:58 10° SE night (unlit)
